Location: Santa Maria di Sala
(45.5070°N, 12.0300°E)
Time: 03:36:08
(UTC+02:00)

Envisat - Pass Details

Date: 25 April 2024
Orbit: 762 x 764 km, 98.3° (Epoch: 24 May)

Event Time Altitude Azimuth Distance (km) Brightness Sun altitude
Rises 04:28:10 0° 15° (NNE) 3,239 7.2 -16.1°
Reaches altitude 10° 04:30:30 10° 18° (NNE) 2,308 6.3 -15.8°
Maximum altitude 04:35:34 71° 102° (ESE) 807 3.2 -15.1°
Enters shadow 04:40:36 10° 187° (S) 2,283 5.1 -14.4°
